Weather Roundup
Issued by NWS Chicago, IL

Home | Current Version | Previous Version | Graphics & Text | Print | Product List | Glossary On
Versions: 1 2 3 4 5 6 7 8 9 10 11 12 13 14 15 16 17 18 19 20 21 22 23 24 25 26 27 28 29 30 31 32 33 34 35 36 37 38 39 40 41 42 43 44 45 46 47 48 49 50
000
NZUS59 KLOT 281801
HRRLOT

CHICAGO AREA WEATHER ROUNDUP
NATIONAL WEATHER SERVICE CHICAGO/ROMEOVILLE IL
100 PM CDT FRI AUG 28 2015

NOTE: "FAIR" INDICATES FEW OR NO CLOUDS BELOW 12,000 FEET WITH NO
SIGNIFICANT WEATHER AND/OR OBSTRUCTIONS TO VISIBILITY.

* THESE STATIONS ARE NOT UNDER NWS QUALITY CONTROL. THEY ALSO MAY NOT
  REPORT WEATHER SUCH AS PRECIPITATION OR FOG.

ILZ005-006-012>014-019>023-281900-
NORTHEAST ILLINOIS

CITY           SKY/WX    TMP DP  RH WIND       PRES   REMARKS
OHARE          CLOUDY    71  59  65 SW7       30.13F
6HR MIN TEMP:  61; 6HR MAX TEMP:  72;

MIDWAY         CLOUDY    74  59  59 SW9       30.14F
6HR MIN TEMP:  63; 6HR MAX TEMP:  74;

AURORA         CLOUDY    70  61  73 S5        30.14F
6HR MIN TEMP:  59; 6HR MAX TEMP:  70;

WAUKEGAN       CLOUDY    70  61  73 SE6       30.12F
6HR MIN TEMP:  56; 6HR MAX TEMP:  73;

DUPAGE AIRPORT CLOUDY    70  60  70 S5        30.13F
6HR MIN TEMP:  60; 6HR MAX TEMP:  70;

WHEELING       CLOUDY    72  58  61 SW8       30.15S
6HR MIN TEMP:  58; 6HR MAX TEMP:  74;

NORTHERLY IS     N/A     73  57  57 W12         N/A
$$

WIZ051-052-058>065-066-070>072-281900-
SOUTHEAST WISCONSIN

CITY           SKY/WX    TMP DP  RH WIND       PRES   REMARKS
MILWAUKEE      CLOUDY    73  59  61 SW10      30.13S
6HR MIN TEMP:  60; 6HR MAX TEMP:  74;

KENOSHA*       CLOUDY    74  60  61 SW6       30.13F
RACINE*        CLOUDY    72  59  63 SE6       30.14F
WAUKESHA       LGT RAIN  68  61  77 S5        30.14F
$$

INZ001>003-010>013-019-020-281900-
NORTHWEST INDIANA

CITY           SKY/WX    TMP DP  RH WIND       PRES   REMARKS
GARY*          CLOUDY    75  59  57 SW5       30.15S
MICHIGAN CITY* NOT AVBL
RENSSELAER*    NOT AVBL
$$

LMZ740>746-281900-
SOUTHERN LAKE MICHIGAN

STATION/POSITION TIME  SKY/WX   TEMP WIND        PRES    VSBY
                                AIR  DIR/SP/G
                 (UTC)          (F)  (DEG/KT/KT) (MB)    (MI)
HARRISON CRIB    1700            70  160/  8/ 10   N/A
BURNHAM HARBOR   1800            73  230/  6/ 10   N/A
CALUMET HARBOR   1700            73  190/  5/  8   N/A
BURNS HARBOR     1700            73  200/  9/ 12 1021.3S
MICHIGAN CITY    1700            72  190/  8/ 10   N/A
$$

ABBREVIATIONS USED IN REMARKS
   TC - TEMPERATURE IN CELSIUS
  WCI - WIND CHILL INDEX
   HX - HEAT INDEX
  VSB - VISIBILITY
$$



USA.gov is the U.S. government's official web portal to all federal, state and local government web resources and services.